TimeEDT,TemperatureF,Dew PointF,Humidity,Sea Level PressureIn,VisibilityMPH,Wind Direction,Wind SpeedMPH,Gust SpeedMPH,PrecipitationIn,Events,Conditions,WindDirDegrees,DateUTC
12:51 AM,71.1,59.0,66,30.08,10.0,SSW,6.9,-,N/A,,Partly Cloudy,200,2013-05-30 04:51:00
1:51 AM,70.0,59.0,68,30.08,10.0,SSW,5.8,-,N/A,,Partly Cloudy,200,2013-05-30 05:51:00
2:51 AM,69.1,60.1,73,30.09,10.0,SW,8.1,-,N/A,,Scattered Clouds,220,2013-05-30 06:51:00
3:51 AM,69.1,60.1,73,30.09,10.0,SW,8.1,-,N/A,,Scattered Clouds,220,2013-05-30 07:51:00
4:51 AM,69.1,60.1,73,30.10,10.0,SSW,5.8,-,N/A,,Mostly Cloudy,210,2013-05-30 08:51:00
5:51 AM,66.9,60.1,79,30.12,10.0,SSW,4.6,-,N/A,,Mostly Cloudy,200,2013-05-30 09:51:00
6:51 AM,68.0,61.0,78,30.13,10.0,South,4.6,-,N/A,,Scattered Clouds,180,2013-05-30 10:51:00
7:51 AM,72.0,62.1,71,30.14,10.0,South,3.5,-,N/A,,Scattered Clouds,190,2013-05-30 11:51:00
8:51 AM,75.9,64.0,67,30.15,10.0,SW,8.1,-,N/A,,Mostly Cloudy,220,2013-05-30 12:51:00
9:51 AM,80.1,64.9,60,30.16,10.0,SW,8.1,-,N/A,,Mostly Cloudy,230,2013-05-30 13:51:00
10:51 AM,80.1,64.9,60,30.16,10.0,SW,8.1,-,N/A,,Overcast,220,2013-05-30 14:51:00
11:51 AM,81.0,64.9,58,30.16,10.0,SW,9.2,-,N/A,,Overcast,220,2013-05-30 15:51:00
12:51 PM,84.9,64.0,49,30.14,10.0,SW,11.5,-,N/A,,Overcast,230,2013-05-30 16:51:00
1:51 PM,84.9,61.0,44,30.14,10.0,SW,15.0,-,N/A,,Overcast,230,2013-05-30 17:51:00
2:51 PM,84.9,59.0,41,30.13,10.0,South,11.5,-,N/A,,Overcast,190,2013-05-30 18:51:00
3:51 PM,86.0,60.1,41,30.12,10.0,WSW,10.4,-,N/A,,Mostly Cloudy,240,2013-05-30 19:51:00
4:51 PM,86.0,59.0,40,30.09,10.0,SSW,9.2,-,N/A,,Mostly Cloudy,200,2013-05-30 20:51:00
5:51 PM,86.0,57.9,38,30.08,10.0,SW,9.2,16.1,N/A,,Mostly Cloudy,220,2013-05-30 21:51:00
6:51 PM,84.0,59.0,43,30.07,10.0,South,6.9,-,N/A,,Mostly Cloudy,180,2013-05-30 22:51:00
7:51 PM,82.0,60.1,47,30.06,10.0,SSE,5.8,-,N/A,,Mostly Cloudy,160,2013-05-30 23:51:00
8:51 PM,77.0,61.0,58,30.07,10.0,SE,5.8,-,N/A,,Mostly Cloudy,140,2013-05-31 00:51:00
9:51 PM,73.9,61.0,64,30.07,10.0,SE,6.9,-,N/A,,Scattered Clouds,140,2013-05-31 01:51:00
10:51 PM,75.0,62.1,64,30.08,10.0,South,6.9,-,N/A,,Partly Cloudy,180,2013-05-31 02:51:00
11:51 PM,73.0,62.1,68,30.08,10.0,South,5.8,-,N/A,,Clear,170,2013-05-31 03:51:00